User: anonymous   Login
Location: Unspecified
(0.0000°N, 0.0000°E)
Time: 20:35:07
(UTC+00:00)
Language:

WGS 9 (USA 275) - Orbit

View from above orbital plane
View from above orbital plane
View from above satellite
View from above satellite

Ground track
Ground track

The orbit data is extracted from the following two-line orbital elements,

1 42075U 17016A   21136.68773769 -.00000086  00000-0  00000-0 0  9994
2 42075   0.0639 101.4337 0000252 184.5303 184.4429  1.00271496 15288
Epoch (UTC): 16 May 2021 16:30:20
Eccentricity: 0.0000252
inclination: 0.0639°
perigee height: 35785 km
apogee height: 35787 km
right ascension of ascending node: 101.4337°
argument of perigee: 184.5303°
revolutions per day: 1.00271496
mean anomaly at epoch: 184.4429°
orbit number at epoch: 1528

The dashed part of the orbit path shows where the satellite is in the earth's shadow,  

DLR